Doha, Qatar

12:47 AM +03 on March 31, 2017 (GMT +0300)
Doha International

Weather History for OTBD - April, 2013

Change the Weather History Date:

Monday, April 8, 2013

  Actual Average Record
Temperature  
Mean Temperature 76 °F -  
Max Temperature 86 °F 92 °F 104 °F (2003)
Min Temperature 67 °F 71 °F 64 °F (1998)
Cooling Degree Days 12    
Growing Degree Days 26 (Base 50)    
Moisture  
Dew Point 61 °F    
Average Humidity 60    
Maximum Humidity 78    
Minimum Humidity 31    
Precipitation  
Precipitation 0.00 in 0.01 in - ()
Sea Level Pressure  
Sea Level Pressure 29.76 in    
Wind  
Wind Speed 5 mph ()    
Max Wind Speed 12 mph    
Max Gust Speed -    
Visibility 5.1 miles    
Events      
Averages and records for this station are not official NWS values.
T = Trace of Precipitation, MM = Missing Value Source: Averaged Metar Reports

Daily Weather History Graph

Daily Weather History Graph

Search for Another Location

Airport or City:

Trip Planner

Search our weather history database for the weather conditions in past years. The results will help you decide how hot, cold, wet, or windy it might be!

Date:

Astronomy

Apr. 08, 2013 Rise Set
Actual Time 5:18 AM +03 5:53 PM +03
Civil Twilight 4:55 AM +03 6:16 PM +03
Nautical Twilight 4:27 AM +03 6:43 PM +03
Astronomical Twilight 4:00 AM +03 7:11 PM +03
Moon 3:44 AM +03 (4/8) 4:11 PM +03 (4/8)
Length of Visible Light 13h 21m
Length of Day
12h 35m
Waning Crescent, 4% of the Moon is Illuminated
Apr 8
Waning Crescent
Apr 10
New
Apr 18
First Quarter
Apr 25
Full
May 2
Last Quarter

Hourly Weather History & Observations

Time (+03) Temp. Heat Index Dew Point Humidity Pressure Visibility Wind Dir Wind Speed Gust Speed Precip Events Conditions
12:00 AM 71.6 °F - 59.0 °F 64% 29.74 in - Calm Calm - N/A   Clear
1:00 AM 71.6 °F - 57.2 °F 60% 29.71 in - South 3.5 mph - N/A   Clear
1:30 AM 69.8 °F - 59.0 °F 68% 29.71 in - SSW 4.6 mph - N/A   Clear
2:00 AM 69.8 °F - 57.2 °F 64% 29.71 in - SW 5.8 mph - N/A   Clear
3:00 AM 69 °F - 58 °F 60% 29.72 in 6 mi 2.3 mph - -  
3:00 AM 69.8 °F - 59.0 °F 68% 29.71 in - Variable 2.3 mph - N/A   Clear
3:30 AM 68.0 °F - 57.2 °F 68% 29.71 in - SW 3.5 mph - N/A   Clear
4:00 AM 68.0 °F - 57.2 °F 68% 29.71 in - Variable 2.3 mph - N/A   Clear
4:30 AM 68.0 °F - 57.2 °F 68% 29.71 in - SW 5.8 mph - N/A   Clear
5:00 AM 68.0 °F - 55.4 °F 64% 29.74 in - SW 4.6 mph - N/A   Clear
5:30 AM 68.0 °F - 57.2 °F 68% 29.74 in - SW 5.8 mph - N/A   Clear
6:00 AM 69.8 °F - 55.4 °F 60% 29.74 in - SW 4.6 mph - N/A   Clear
6:30 AM 71.6 °F - 55.4 °F 57% 29.77 in - SW 3.5 mph - N/A   Clear
7:00 AM 71.6 °F - 55.4 °F 57% 29.77 in - SSW 3.5 mph - N/A   Clear
7:30 AM 73.4 °F - 53.6 °F 50% 29.80 in 5.0 mi SSW 3.5 mph - N/A   Unknown
9:00 AM 80 °F - 57 °F 34% 29.81 in 4 mi SSW 4.6 mph - -   Widespread Dust
9:00 AM 80.6 °F 80.8 °F 57.2 °F 45% 29.80 in 4.3 mi SSW 4.6 mph - N/A   Unknown
9:30 AM 80.6 °F 80.5 °F 55.4 °F 42% 29.80 in 4.3 mi WSW 3.5 mph - N/A   Unknown
10:30 AM 86.0 °F - 51.8 °F 31% 29.77 in 5.0 mi Variable 2.3 mph - N/A   Unknown
11:00 AM 84.2 °F 83.8 °F 59.0 °F 42% 29.77 in 5.0 mi ENE 9.2 mph - N/A   Unknown
11:30 AM 82.4 °F 82.9 °F 60.8 °F 48% 29.77 in 5.0 mi East 9.2 mph - N/A   Unknown
12:00 PM 82.4 °F 82.9 °F 60.8 °F 48% 29.77 in 5.0 mi East 9.2 mph - N/A   Unknown
1:00 PM 82.4 °F 82.9 °F 60.8 °F 48% 29.74 in 5.0 mi East 10.4 mph - N/A   Unknown
1:30 PM 82.4 °F 82.9 °F 60.8 °F 48% 29.74 in - East 10.4 mph - N/A   Clear
2:00 PM 80.6 °F 81.5 °F 60.8 °F 51% 29.74 in - East 11.5 mph - N/A   Clear
2:30 PM 80.6 °F 81.8 °F 62.6 °F 54% 29.74 in - East 10.4 mph - N/A   Clear
3:00 PM 81 °F - 61 °F 40% 29.74 in 6 mi East 10.4 mph - -  
3:00 PM 80.6 °F 81.5 °F 60.8 °F 51% 29.74 in - East 10.4 mph - N/A   Clear
3:30 PM 80.6 °F 81.8 °F 62.6 °F 54% 29.74 in - ESE 10.4 mph - N/A   Clear
4:00 PM 78.8 °F - 64.4 °F 61% 29.74 in - ESE 9.2 mph - N/A   Clear
4:30 PM 78.8 °F - 66.2 °F 65% 29.74 in - East 9.2 mph - N/A   Clear
5:00 PM 78.8 °F - 66.2 °F 65% 29.77 in - East 9.2 mph - N/A   Clear
6:30 PM 77.0 °F - 66.2 °F 69% 29.80 in - East 6.9 mph - N/A   Clear
7:00 PM 75.2 °F - 64.4 °F 69% 29.80 in - ENE 5.8 mph - N/A   Clear
8:00 PM 75.2 °F - 68.0 °F 78% 29.80 in - East 5.8 mph - N/A   Clear
9:00 PM 75 °F - 67 °F 70% 29.82 in 7 mi East 5.8 mph - -  
9:00 PM 75.2 °F - 68.0 °F 78% 29.80 in - East 5.8 mph - N/A   Clear
9:30 PM 75.2 °F - 68.0 °F 78% 29.80 in - East 6.9 mph - N/A   Clear
10:00 PM 75.2 °F - 68.0 °F 78% 29.80 in - East 5.8 mph - N/A   Clear
10:30 PM 75.2 °F - 66.2 °F 73% 29.80 in - ESE 3.5 mph - N/A   Clear
11:00 PM 75.2 °F - 64.4 °F 69% 29.80 in - SSE 3.5 mph - N/A   Clear
11:30 PM 75.2 °F - 64.4 °F 69% 29.77 in - Variable 2.3 mph - N/A   Clear